TimeCST,TemperatureF,Dew PointF,Humidity,Sea Level PressureIn,VisibilityMPH,Wind Direction,Wind SpeedMPH,Gust SpeedMPH,PrecipitationIn,Events,Conditions,WindDirDegrees,DateUTC
12:15 AM,26.4,7.9,46,29.85,10.0,WSW,5.8,-,N/A,,Overcast,250,2012-12-11 06:15:00
12:35 AM,26.6,10.2,50,29.85,10.0,WSW,6.9,-,N/A,,Overcast,240,2012-12-11 06:35:00
12:55 AM,27.1,12.2,53,29.84,10.0,WSW,6.9,-,N/A,,Overcast,240,2012-12-11 06:55:00
1:15 AM,25.7,11.5,55,29.84,10.0,WSW,5.8,-,N/A,,Scattered Clouds,250,2012-12-11 07:15:00
1:35 AM,24.8,11.3,57,29.83,10.0,WSW,4.6,-,N/A,,Scattered Clouds,240,2012-12-11 07:35:00
1:55 AM,23.7,11.3,59,29.85,10.0,WSW,6.9,-,N/A,,Scattered Clouds,250,2012-12-11 07:55:00
2:15 AM,24.3,12.6,61,29.85,10.0,WSW,9.2,-,N/A,,Clear,250,2012-12-11 08:15:00
2:35 AM,24.8,13.8,63,29.86,10.0,West,8.1,-,N/A,,Clear,260,2012-12-11 08:35:00
2:55 AM,24.8,15.6,68,29.86,10.0,West,6.9,-,N/A,,Clear,280,2012-12-11 08:55:00
3:15 AM,24.6,15.8,69,29.87,10.0,West,6.9,-,N/A,,Clear,270,2012-12-11 09:15:00
3:35 AM,23.9,16.2,72,29.87,10.0,West,6.9,-,N/A,,Clear,270,2012-12-11 09:35:00
3:55 AM,23.7,16.0,72,29.87,10.0,West,6.9,-,N/A,,Clear,280,2012-12-11 09:55:00
4:15 AM,23.0,16.0,74,29.87,10.0,West,3.5,-,N/A,,Clear,260,2012-12-11 10:15:00
4:35 AM,22.8,15.6,74,29.87,10.0,West,3.5,-,N/A,,Clear,270,2012-12-11 10:35:00
4:55 AM,22.5,14.9,73,29.87,10.0,Calm,Calm,-,N/A,,Clear,0,2012-12-11 10:55:00
5:15 AM,22.3,15.4,75,29.88,10.0,WSW,4.6,-,N/A,,Mostly Cloudy,240,2012-12-11 11:15:00
5:35 AM,22.8,15.8,74,29.88,10.0,SW,3.5,-,N/A,,Overcast,230,2012-12-11 11:35:00
6:15 AM,24.8,17.6,74,29.88,10.0,SW,3.5,-,N/A,,Mostly Cloudy,230,2012-12-11 12:15:00
6:35 AM,25.2,18.1,75,29.88,10.0,SW,5.8,-,N/A,,Scattered Clouds,230,2012-12-11 12:35:00
6:55 AM,24.8,18.0,75,29.88,10.0,WSW,8.1,-,N/A,,Clear,240,2012-12-11 12:55:00
7:15 AM,24.8,17.6,74,29.88,10.0,WSW,6.9,-,N/A,,Clear,240,2012-12-11 13:15:00
7:35 AM,24.4,17.2,74,29.89,10.0,SW,5.8,-,N/A,,Clear,230,2012-12-11 13:35:00
7:55 AM,24.6,17.8,75,29.89,10.0,WSW,8.1,-,N/A,,Scattered Clouds,240,2012-12-11 13:55:00
8:15 AM,26.2,18.9,74,29.90,10.0,SW,5.8,-,N/A,,Mostly Cloudy,220,2012-12-11 14:15:00
8:35 AM,26.1,18.5,73,29.90,10.0,SSW,6.9,-,N/A,,Mostly Cloudy,210,2012-12-11 14:35:00
8:55 AM,28.4,20.7,73,29.90,10.0,SW,10.4,-,N/A,,Mostly Cloudy,220,2012-12-11 14:55:00
9:15 AM,30.0,20.8,69,29.91,10.0,SW,11.5,-,N/A,,Mostly Cloudy,230,2012-12-11 15:15:00
9:35 AM,30.2,19.9,66,29.91,10.0,SW,9.2,17.3,N/A,,Mostly Cloudy,230,2012-12-11 15:35:00
9:55 AM,30.9,20.3,65,29.92,10.0,WSW,10.4,17.3,N/A,,Overcast,250,2012-12-11 15:55:00
10:15 AM,31.1,20.3,64,29.92,10.0,WSW,11.5,-,N/A,,Mostly Cloudy,250,2012-12-11 16:15:00
10:35 AM,32.0,21.4,65,29.92,10.0,West,12.7,-,N/A,,Mostly Cloudy,260,2012-12-11 16:35:00
10:55 AM,32.7,21.9,64,29.92,10.0,WSW,13.8,-,N/A,,Overcast,250,2012-12-11 16:55:00
11:15 AM,33.8,22.3,63,29.92,10.0,West,16.1,-,N/A,,Mostly Cloudy,260,2012-12-11 17:15:00
11:35 AM,35.8,21.9,57,29.92,10.0,West,15.0,19.6,N/A,,Scattered Clouds,260,2012-12-11 17:35:00
11:55 AM,35.8,21.6,56,29.92,10.0,West,12.7,17.3,N/A,,Clear,270,2012-12-11 17:55:00
12:15 PM,37.0,21.7,54,29.92,10.0,West,11.5,17.3,N/A,,Clear,260,2012-12-11 18:15:00
12:35 PM,37.6,21.6,52,29.92,10.0,West,12.7,-,N/A,,Clear,280,2012-12-11 18:35:00
12:55 PM,38.8,20.8,48,29.92,10.0,West,11.5,18.4,N/A,,Clear,270,2012-12-11 18:55:00
1:15 PM,39.0,19.9,46,29.91,10.0,West,12.7,-,N/A,,Clear,270,2012-12-11 19:15:00
1:35 PM,39.9,19.6,44,29.90,10.0,West,11.5,18.4,N/A,,Clear,270,2012-12-11 19:35:00
1:55 PM,41.0,18.3,40,29.90,10.0,West,12.7,-,N/A,,Scattered Clouds,270,2012-12-11 19:55:00
2:15 PM,40.6,15.1,35,29.90,10.0,West,10.4,18.4,N/A,,Scattered Clouds,280,2012-12-11 20:15:00
2:35 PM,40.8,16.2,37,29.90,10.0,West,10.4,18.4,N/A,,Clear,260,2012-12-11 20:35:00
2:55 PM,41.0,16.7,37,29.90,10.0,West,11.5,-,N/A,,Clear,260,2012-12-11 20:55:00
3:15 PM,40.6,15.6,36,29.91,10.0,West,11.5,-,N/A,,Clear,260,2012-12-11 21:15:00
3:35 PM,40.1,15.6,37,29.91,10.0,WSW,9.2,-,N/A,,Clear,250,2012-12-11 21:35:00
3:55 PM,39.6,17.6,41,29.91,10.0,West,8.1,-,N/A,,Clear,260,2012-12-11 21:55:00
4:15 PM,38.5,18.5,45,29.91,10.0,WSW,5.8,-,N/A,,Clear,240,2012-12-11 22:15:00
4:35 PM,37.2,19.0,48,29.91,10.0,SW,4.6,-,N/A,,Clear,220,2012-12-11 22:35:00
4:55 PM,34.9,19.4,53,29.91,10.0,SW,3.5,-,N/A,,Clear,220,2012-12-11 22:55:00
5:15 PM,33.4,19.4,56,29.92,10.0,Calm,Calm,-,N/A,,Clear,0,2012-12-11 23:15:00
5:35 PM,32.7,20.3,60,29.92,10.0,South,3.5,-,N/A,,Clear,180,2012-12-11 23:35:00
5:55 PM,31.3,18.3,59,29.92,10.0,Calm,Calm,-,N/A,,Clear,0,2012-12-11 23:55:00
6:15 PM,30.6,20.5,66,29.92,10.0,Calm,Calm,-,N/A,,Clear,0,2012-12-12 00:15:00
6:35 PM,28.4,19.4,69,29.92,10.0,Calm,Calm,-,N/A,,Scattered Clouds,0,2012-12-12 00:35:00
6:55 PM,28.4,20.7,73,29.92,10.0,Calm,Calm,-,N/A,,Scattered Clouds,0,2012-12-12 00:55:00
7:15 PM,28.6,20.1,71,29.92,10.0,Calm,Calm,-,N/A,,Clear,0,2012-12-12 01:15:00
7:35 PM,27.1,18.7,70,29.92,10.0,Calm,Calm,-,N/A,,Clear,0,2012-12-12 01:35:00
7:55 PM,25.7,19.2,76,29.93,10.0,Calm,Calm,-,N/A,,Clear,0,2012-12-12 01:55:00
8:15 PM,25.2,18.9,77,29.93,10.0,Calm,Calm,-,N/A,,Clear,0,2012-12-12 02:15:00
8:35 PM,25.2,17.8,74,29.94,10.0,Calm,Calm,-,N/A,,Clear,0,2012-12-12 02:35:00
8:55 PM,25.7,19.0,76,29.93,10.0,Calm,Calm,-,N/A,,Clear,0,2012-12-12 02:55:00
9:15 PM,24.3,15.8,70,29.94,10.0,Calm,Calm,-,N/A,,Clear,0,2012-12-12 03:15:00
9:35 PM,25.3,18.0,74,29.94,10.0,SSE,3.5,-,N/A,,Clear,160,2012-12-12 03:35:00
9:55 PM,26.2,17.8,70,29.93,10.0,Calm,Calm,-,N/A,,Clear,0,2012-12-12 03:55:00
10:15 PM,25.2,17.1,71,29.93,10.0,Calm,Calm,-,N/A,,Clear,0,2012-12-12 04:15:00
10:35 PM,25.7,17.4,71,29.93,10.0,South,3.5,-,N/A,,Clear,180,2012-12-12 04:35:00
10:55 PM,25.3,16.9,70,29.93,10.0,Calm,Calm,-,N/A,,Clear,0,2012-12-12 04:55:00
11:15 PM,25.5,17.2,71,29.93,10.0,Calm,Calm,-,N/A,,Clear,0,2012-12-12 05:15:00
11:35 PM,25.7,16.7,69,29.94,10.0,SSW,3.5,-,N/A,,Clear,200,2012-12-12 05:35:00
11:55 PM,27.1,17.6,67,29.94,10.0,South,4.6,-,N/A,,Clear,190,2012-12-12 05:55:00